Location: Mountain Hill
(32.7232°N, 85.0227°W)
Time: 21:56:05
(UTC+00:00)

ARIANE 6 FM1 Upper Stage - Visible Passes

Search period start: 17 January 2026 00:00
Search period end: 27 January 2026 00:00
Orbit: 522 x 610 km, 62.0° (Epoch: 17 January)

Date Brightness Start Highest point End Pass type
(mag) Time Alt. Az. Time Alt. Az. Time Alt. Az.
17 Jan 5.6 01:32:34 10° SSW 01:32:36 10° SSW 01:32:36 10° SSW visible
17 Jan 5.2 10:04:11 19° E 10:04:11 19° E 10:05:54 10° ESE visible
17 Jan 3.8 11:40:15 20° W 11:41:32 24° WSW 11:44:48 10° S visible
18 Jan 5.2 01:32:49 10° SW 01:33:48 17° SW 01:33:48 17° SW visible
18 Jan 5.1 10:05:14 19° ESE 10:05:14 19° ESE 10:06:38 10° ESE visible
18 Jan 4.4 11:41:18 15° WSW 11:41:37 15° WSW 11:43:56 10° SSW visible
18 Jan 4.4 23:56:02 10° SSE 23:58:25 15° ESE 23:58:54 15° ESE visible
19 Jan 5.0 01:33:17 10° WSW 01:34:58 21° WSW 01:34:58 21° WSW visible
19 Jan 5.3 10:06:20 15° SE 10:06:20 15° SE 10:07:06 10° SE visible
19 Jan 3.9 23:55:09 10° S 23:58:29 24° ESE 00:00:00 19° E visible
20 Jan 5.0 01:33:59 10° WSW 01:36:05 21° W 01:36:05 21° W visible
20 Jan 3.2 23:54:44 10° S 23:58:35 38° ESE 00:01:03 19° ENE visible
21 Jan 5.3 01:35:00 10° W 01:37:07 16° WNW 01:37:07 16° WNW visible
21 Jan 2.6 23:54:37 10° SSW 23:58:42 63° ESE 00:02:00 15° NE visible
22 Jan 5.5 01:36:40 10° WNW 01:38:02 11° NW 01:38:04 11° NW visible
22 Jan 2.7 23:54:43 10° SW 23:58:52 80° WNW 00:02:52 10° NNE visible
23 Jan 3.5 23:55:02 10° SW 23:59:02 48° NW 00:02:57 10° NNE visible
24 Jan 4.3 23:55:35 10° WSW 23:59:15 31° NW 00:02:52 10° N visible
25 Jan 4.9 23:56:23 10° W 23:59:31 21° NW 00:02:37 10° N visible
